CAPE
137 290 442 422 398 332 329 276 1 0 9 18 0 0 0 0 0 0 0 0 0 0 0 0 0 0 0 0 0 0 0 0 0 0 0 0 0 10 4 0 0 0 0
403 415 553 605 527 449 506 306 428 366 89 15 0 0 0 0 0 0 0 0 0 0 0 0 0 0 0 0 0 0 0 0 0 0 0 0 0 0 8 1 0 0 0
510 542 585 703 662 619 617 438 202 23 0 0 0 0 0 0 0 0 0 0 0 0 0 0 0 0 0 0 0 0 0 0 0 3 6 0 0 0 0 4 4 1 0
157 86 7 58 121 118 41 0 0 0 0 0 0 0 4 6 0 0 0 0 0 0 0 0 0 0 0 0 0 0 1 2 7 4 12 24 24 12 4 5 4 0 0
0 0 0 0 0 0 0 0 0 0 0 0 0 0 0 0 0 0 0 0 0 0 0 0 0 0 0 8 15 24 29 28 30 28 11 11 6 3 7 16 8 1 6
0 0 0 0 0 0 0 0 0 0 0 0 0 0 0 0 0 0 0 0 0 0 0 1 0 9 22 28 31 37 19 15 15 16 10 4 2 5 4 14 18 10 2
0 0 0 0 0 0 0 0 0 0 0 0 0 0 0 0 0 0 0 0 0 0 3 5 13 10 11 30 36 15 7 6 9 6 17 9 3 10 4 7 14 7 0
0 0 0 0 0 0 0 0 0 0 0 0 0 0 0 0 0 0 0 0 0 1 0 7 11 7 14 30 13 6 11 16 12 21 16 6 9 10 9 4 4 4 0
0 0 0 0 0 0 0 0 0 0 0 0 0 0 0 0 0 0 0 0 0 0 0 0 0 0 3 17 15 14 14 16 12 16 13 8 11 17 13 13 11 9 13
0 0 0 0 0 0 0 0 0 0 0 0 0 0 0 0 0 0 0 0 0 0 0 0 0 0 0 9 17 4 16 28 15 9 9 7 4 10 7 9 14 10 11
0 0 0 0 0 0 0 0 0 0 0 0 0 0 0 0 0 0 0 0 0 0 0 0 0 0 5 19 17 21 16 7 5 5 2 3 8 6 16 19 16 14 13
0 0 0 0 0 0 0 0 0 0 0 0 0 0 0 0 0 0 0 0 0 0 0 0 0 4 16 19 20 5 2 8 8 8 6 8 5 20 16 12 12 12 12
0 0 0 0 0 0 0 0 0 0 0 0 0 0 0 0 0 0 0 0 0 0 0 0 1 11 19 17 8 17 8 7 4 6 9 16 10 4 4 5 3 4 3
0 0 0 0 0 0 0 0 0 0 0 0 0 0 0 0 0 0 0 0 0 0 0 0 4 6 4 15 11 2 4 9 10 12 9 3 0 0 0 0 0 0 0
0 0 0 0 0 0 0 0 0 0 0 0 0 0 0 0 0 0 0 0 0 0 0 1 3 7 7 2 4 6 7 9 2 0 0 0 0 0 0 0 0 0 0
0 0 0 0 0 0 0 0 0 0 0 0 0 0 0 0 0 0 0 0 0 3 5 2 7 5 4 0 0 0 0 0 0 0 0 0 0 0 0 0 0 0 1
0 0 0 0 0 0 0 0 0 0 0 0 0 0 0 0 0 0 0 0 1 5 4 8 6 8 4 0 0 0 0 0 0 0 0 0 0 0 1 1 1 4 3
0 0 0 0 0 0 0 0 0 0 0 0 0 0 0 0 0 0 0 0 4 3 10 10 6 5 1 0 0 0 0 0 0 0 0 0 0 0 1 6 4 7 2
0 0 0 0 0 0 0 0 0 0 0 0 0 0 0 0 0 0 0 1 1 5 5 12 9 4 3 0 0 0 0 0 0 0 0 0 0 0 0 4 6 6 1
0 0 0 0 0 0 0 0 0 0 0 0 0 0 0 0 0 0 0 2 0 0 7 2 4 1 0 0 0 0 0 1 0 0 0 0 0 0 2 4 2 6 3
0 0 0 0 0 0 0 0 0 0 0 0 0 0 0 0 0 0 0 1 1 4 6 1 3 4 2 0 0 0 0 1 0 0 0 0 0 0 0 0 2 2 1
0 0 0 0 0 0 0 0 0 0 0 0 0 0 0 0 0 1 2 1 3 0 1 4 2 10 2 1 0 0 0 0 0 0 0 0 0 0 0 0 0 0 0
0 0 0 0 0 0 0 0 0 0 0 0 0 0 0 0 0 1 1 0 0 0 2 1 1 2 2 3 0 0 0 0 0 0 0 0 0 0 0 0 0 0 0
0 0 0 0 0 0 0 0 0 0 0 0 0 0 0 0 0 1 0 1 1 0 0 2 0 1 0 3 1 0 0 0 0 0 0 0 0 0 0 0 0 0 0
0 0 0 0 0 0 0 0 0 0 0 0 0 0 0 1 3 1 2 0 0 0 1 2 4 8 4 0 0 0 2 4 1 0 0 0 0 0 0 0 0 0 0
0 0 0 0 0 0 0 0 0 0 0 0 0 0 1 3 3 5 0 0 0 0 0 0 0 1 5 0 0 0 0 0 0 0 0 0 1 0 0 0 0 0 0
CIN
-232 -204 -174 -177 -169 -169 -115 -91 -36 0 -58 -72 0 0 0 0 0 0 0 0 0 0 0 0 0 0 0 0 0 0 0 0 0 0 0 0 0 -1 -2 0 0 0 0
-160 -182 -141 -109 -98 -83 -39 -38 -3 -8 -34 -58 0 0 0 0 0 0 0 0 0 0 0 0 0 0 0 0 0 0 0 0 0 0 0 0 0 0 -2 -2 0 0 0
-120 -119 -89 -45 -42 -31 -10 -9 -31 -66 0 0 0 0 0 0 0 0 0 0 0 0 0 0 0 0 0 0 0 0 0 0 0 -3 -2 -2 0 0 -2 -4 -3 -2 0
-192 -195 -43 -188 -138 -117 -124 0 0 0 0 0 0 0 -3 -3 -1 0 0 0 0 0 0 0 0 0 0 0 0 0 -2 -2 -2 -3 -2 -3 -3 -1 -2 -4 -5 0 -1
0 0 0 0 0 0 0 0 0 0 0 0 0 0 0 0 0 0 0 0 0 0 0 0 0 0 0 -1 -2 -2 -1 -1 -2 -2 -2 -5 -5 -3 -3 -2 -4 -8 -3
0 0 0 0 0 0 0 0 0 0 0 0 0 0 0 0 0 0 0 0 0 0 0 -1 -1 -1 -1 -2 -2 -2 -2 -2 -2 -2 -2 -2 -10 -2 -3 -1 -3 -2 -6
0 0 0 0 0 0 0 0 0 0 0 0 0 0 0 0 0 0 0 0 0 0 -2 -1 -1 -1 -1 -1 -1 -2 -2 -2 -2 -3 -3 -3 -4 -3 -2 -3 -3 -3 0
0 0 0 0 0 0 0 0 0 0 0 0 0 0 0 0 0 0 0 0 -1 -2 -1 -1 -1 -1 -1 -1 -1 -2 -1 -2 -2 -1 -3 -2 -3 -2 -2 -5 -4 -5 -2
0 0 0 0 0 0 0 0 0 0 0 0 0 0 0 0 0 0 0 0 0 -1 0 0 0 0 0 -1 -1 -1 -2 -3 -1 -1 -7 -3 -3 -2 -2 -4 -6 -4 -3
0 0 0 0 0 0 0 0 0 0 0 0 0 0 0 0 0 0 0 0 0 0 0 0 0 0 0 -1 -2 -2 -2 -2 -1 -2 -3 -2 -3 -3 -4 -4 -5 -6 -4
0 0 0 0 0 0 0 0 0 0 0 0 0 0 0 0 0 0 0 0 0 0 0 0 0 0 -2 -1 -1 -1 -1 -1 -1 -2 -2 -3 -2 -3 -3 -4 -5 -5 -5
0 0 0 0 0 0 0 0 0 0 0 0 0 0 0 0 0 0 0 0 0 0 0 0 0 -2 -1 -1 0 -1 -1 -2 -2 -2 -1 -2 -3 -3 -3 -4 -6 -5 -5
0 0 0 0 0 0 0 0 0 0 0 0 0 0 0 0 0 0 0 0 0 0 0 0 -1 -1 -1 0 0 -1 -2 -1 -1 -1 -2 -2 -2 -4 -4 -4 -4 -4 -5
0 0 0 0 0 0 0 0 0 0 0 0 0 0 0 0 0 0 0 0 0 0 0 0 -1 -2 -2 -1 -1 -1 -1 -1 -1 -1 -2 -1 0 -2 0 0 0 0 -6
0 0 0 0 0 0 0 0 0 0 0 0 0 0 0 0 0 0 0 0 0 0 0 -1 -1 -1 -1 0 -1 -1 -1 -1 -1 0 0 0 0 0 0 0 0 -3 -5
0 0 0 0 0 0 0 0 0 0 0 0 0 0 0 0 0 0 0 0 -1 -1 -1 -1 0 -1 -1 0 0 0 0 0 0 0 0 0 0 0 0 0 0 0 -3
0 0 0 0 0 0 0 0 0 0 0 0 0 0 0 0 0 0 0 0 -2 -1 -1 0 -1 -1 0 0 0 0 0 0 0 0 0 0 0 0 -3 -4 -2 -7 -7
0 0 0 0 0 0 0 0 0 0 0 0 0 0 0 0 0 0 0 -1 -1 -1 0 0 0 -1 -2 0 0 0 0 0 0 0 0 0 0 -2 -1 -2 -3 -2 -3
0 0 0 0 0 0 0 0 0 0 0 0 0 0 0 0 0 0 0 -1 -1 -1 -1 0 0 -1 -1 0 0 0 0 0 0 0 0 0 0 -6 -1 -2 -2 -3 -4
0 0 0 0 0 0 0 0 0 0 0 0 0 0 0 0 0 0 0 -1 -1 -1 0 0 -1 0 0 0 0 0 0 -1 -1 0 0 0 0 0 -1 -2 -2 -1 -4
0 0 0 0 0 0 0 0 0 0 0 0 0 0 0 0 0 -1 -1 -2 -2 -1 -1 -1 0 0 0 -1 0 0 0 -1 -1 0 0 0 0 0 0 -1 -2 -1 -1
0 0 0 0 0 0 0 0 0 0 0 0 0 0 0 0 0 -2 -2 -2 -2 -1 -1 -2 0 -1 -1 0 0 0 0 0 -1 0 0 0 0 0 0 0 0 0 -1
0 0 0 0 0 0 0 0 0 0 0 0 0 0 0 0 -1 -1 -1 0 -2 0 -2 -3 -2 -2 -3 -1 0 0 0 0 0 0 0 0 0 0 0 0 0 0 0
0 0 0 0 0 0 0 0 0 0 0 0 0 0 0 0 0 -2 -1 -3 -2 0 0 -2 -3 -3 -5 -2 -3 -2 -1 0 0 0 0 0 0 0 0 0 0 0 0
0 0 0 0 0 0 0 0 0 0 0 0 0 0 0 -1 -1 -2 -2 -1 -2 -2 -1 -2 -2 0 -1 -2 -2 -1 -1 -1 0 0 0 0 0 0 0 0 0 0 0
0 0 0 0 0 0 0 0 0 0 0 0 0 0 -2 -1 -1 -1 -3 -3 0 0 0 0 0 -1 -2 -1 0 0 0 0 0 0 0 -1 -1 0 0 0 0 0 0
Wind_Speed
8 9 9 8 7 6 5 4 6 9 11 11 13 12 13 13 14 16 17 17 18 20 23 26 28 29 29 31 33 33 35 36 35 38 38 37 33 30 31 34 34 37 38
7 9 9 8 7 6 6 6 7 9 10 10 12 13 13 14 16 16 17 18 20 22 23 24 26 28 31 33 33 34 37 37 36 39 41 43 39 36 30 37 37 38 39
7 8 9 9 8 9 9 9 9 9 9 11 12 14 15 14 16 17 18 19 20 23 25 28 30 32 32 33 35 35 37 39 38 35 39 45 45 43 38 36 37 38 40
6 7 8 9 9 11 11 11 10 9 9 10 12 13 17 19 21 21 20 21 23 26 28 30 31 32 33 34 35 35 37 37 41 37 35 35 39 44 49 40 39 38 36
4 6 8 9 10 11 11 10 10 10 10 11 13 15 18 20 20 20 20 22 25 27 29 30 31 33 34 36 36 35 35 35 36 38 39 38 37 37 40 45 41 39 36
5 8 9 10 10 10 9 9 9 9 10 12 14 16 18 20 21 22 24 26 29 30 31 32 33 35 36 35 35 34 34 34 35 34 35 36 38 38 37 39 39 39 36
11 11 11 10 9 7 8 8 8 10 12 13 15 16 18 20 23 25 28 31 32 33 34 35 36 37 37 35 34 34 33 33 33 34 36 33 32 33 32 32 36 37 37
14 13 11 8 6 6 7 8 8 10 12 14 15 17 19 23 25 27 30 31 32 33 34 35 36 37 37 35 34 33 32 32 33 35 31 29 28 27 28 29 34 38 39
11 10 7 5 4 5 7 7 8 10 13 15 18 20 21 24 26 29 29 29 31 33 34 36 38 38 37 35 34 32 32 33 31 28 26 25 26 25 26 28 29 32 36
6 5 3 3 4 5 8 8 10 12 14 17 19 21 24 24 25 27 28 30 32 35 37 38 39 38 37 35 33 31 31 31 27 24 24 24 24 26 28 29 29 29 31
3 2 1 3 5 6 8 9 10 12 15 18 20 22 21 23 25 26 29 32 34 36 37 38 39 38 36 32 32 31 31 28 23 23 23 24 26 28 29 31 31 31 32
2 2 3 4 5 7 7 8 10 14 16 19 19 19 23 25 25 28 30 33 35 37 38 39 38 35 32 31 31 29 25 21 22 22 23 26 28 29 30 30 30 30 29
3 3 4 5 6 7 8 10 13 16 18 17 19 23 24 25 27 29 31 34 36 38 38 37 36 33 31 32 27 22 21 20 22 23 25 28 30 31 30 30 30 29 30
5 6 6 7 7 8 9 12 16 16 17 20 23 25 26 26 27 30 33 35 37 38 37 36 34 31 31 27 23 21 20 21 22 26 28 30 30 30 31 31 29 28 27
8 8 9 9 9 10 11 15 15 17 20 23 25 26 25 25 28 31 34 35 36 35 35 35 32 30 26 23 22 21 20 23 27 28 29 29 30 31 28 28 28 27 24
9 9 10 10 10 11 13 15 17 20 22 24 26 25 25 26 29 32 34 35 34 34 33 35 31 27 23 22 21 21 23 26 28 29 30 30 29 28 28 23 22 19 19
10 10 11 11 11 12 14 16 19 21 23 26 25 24 25 28 31 33 34 35 35 34 34 31 27 24 20 19 20 23 25 26 27 29 30 30 28 27 27 26 21 16 16
11 11 11 11 10 12 15 18 19 22 25 25 24 25 27 30 31 33 35 35 34 33 31 28 24 20 18 18 21 24 23 25 27 29 29 29 29 28 28 26 23 19 21
11 11 9 9 10 14 15 18 20 23 24 25 26 27 29 31 33 34 36 34 32 31 29 25 20 18 17 17 21 24 24 26 28 28 27 29 28 29 29 24 20 22 21
10 10 9 9 12 16 17 19 23 24 25 26 27 28 31 32 34 34 34 32 29 28 27 23 18 18 17 17 19 22 24 26 27 27 27 26 26 29 28 25 23 19 27
10 8 8 12 14 16 17 22 23 25 25 26 27 29 30 32 32 32 32 31 29 27 25 21 18 17 17 17 17 20 22 25 27 26 27 27 29 28 26 23 20 25 28
11 12 13 14 15 17 20 23 25 25 26 28 31 31 31 32 32 32 31 29 27 25 23 20 18 16 16 14 15 17 19 23 23 24 25 25 27 23 23 20 28 27 19
13 15 17 16 18 20 21 23 25 27 29 31 31 31 31 31 31 32 30 29 25 22 22 20 18 17 15 15 14 16 17 19 21 22 23 20 19 18 19 24 22 26 27
17 17 15 17 22 22 22 24 27 28 30 31 32 32 32 32 31 29 27 26 23 21 21 19 17 17 16 15 16 16 17 17 18 21 23 20 17 15 16 20 23 26 27
16 17 19 21 22 23 24 27 28 29 31 32 34 33 32 32 30 28 26 24 20 18 19 17 15 17 16 16 17 17 17 18 20 22 20 20 21 22 21 20 24 24 28
18 20 21 22 24 25 28 29 29 31 32 34 34 32 33 31 30 28 26 20 16 16 14 12 13 14 13 14 15 13 14 15 16 19 20 21 21 20 21 21 22 25 26
Wind_Direction
347 347 353 360 1 8 10 16 359 347 347 360 14 11 12 27 23 15 13 11 8 3 355 346 342 342 340 339 338 336 335 333 331 329 326 325 322 322 318 319 319 318 317
4 3 7 12 17 30 30 26 15 16 21 30 29 26 23 14 10 9 10 10 5 358 353 350 346 344 341 338 337 335 332 331 332 328 326 323 321 320 321 320 318 317 317
358 7 18 27 42 50 59 52 43 50 38 42 25 14 8 9 3 359 358 358 357 353 349 345 341 338 337 335 334 334 333 329 330 329 326 323 319 318 318 320 318 318 316
11 27 42 53 56 60 63 64 56 45 36 22 3 0 351 348 348 345 349 350 348 347 344 341 339 338 336 334 333 333 332 331 327 329 327 325 322 319 314 317 317 316 317
43 68 74 69 68 68 64 58 50 37 23 15 2 351 347 348 350 350 348 346 345 342 340 340 339 337 335 333 332 332 332 331 330 328 327 326 324 322 318 315 317 318 318
98 100 92 86 82 73 61 46 43 37 23 14 5 359 353 351 349 346 342 341 338 338 338 338 337 335 334 334 333 332 331 330 329 329 328 326 324 323 322 317 318 318 319
126 122 116 109 99 76 52 46 46 33 23 16 8 2 356 351 345 342 338 336 334 335 336 336 335 334 333 332 332 330 330 330 330 329 327 328 327 326 326 324 321 319 319
138 136 127 113 82 61 45 33 32 17 11 7 4 359 353 347 343 341 338 336 335 335 336 336 335 334 333 332 331 330 330 331 331 328 329 330 330 331 330 328 325 320 319
140 138 126 107 72 56 23 21 13 8 3 359 353 349 347 345 342 340 340 339 338 338 338 337 335 334 333 332 331 330 331 331 332 331 333 335 335 335 334 331 328 325 322
141 141 123 57 34 20 11 11 5 359 356 351 349 346 343 344 345 344 342 342 340 338 337 336 336 335 334 333 333 332 332 332 332 334 334 335 335 334 333 331 328 325 320
165 167 354 359 3 5 7 4 359 356 351 348 346 343 345 345 344 344 343 341 340 338 338 337 336 335 336 336 336 333 334 334 333 335 335 334 334 332 332 330 327 324 322
252 298 327 340 345 349 357 358 356 350 346 344 345 347 344 343 342 342 342 341 340 339 338 337 337 337 337 338 335 335 336 337 338 339 337 334 334 332 331 329 327 325 323
288 303 317 326 331 337 346 348 344 344 343 346 345 342 341 341 342 342 341 341 340 339 338 339 339 338 338 337 338 339 341 341 341 339 337 335 333 332 332 330 329 327 326
289 297 306 316 323 328 334 338 336 342 345 343 341 340 340 341 341 341 340 340 339 339 341 341 340 341 338 340 343 345 344 342 341 339 336 335 336 335 334 332 331 330 330
288 291 302 311 318 323 327 334 339 341 340 339 339 339 340 341 341 340 339 340 340 342 343 344 343 342 345 349 347 346 345 341 338 338 339 339 339 337 337 338 336 336 336
291 298 306 313 317 320 328 334 336 337 339 338 338 339 340 340 339 339 339 340 341 342 343 344 345 348 349 352 353 349 343 339 339 340 341 342 343 343 341 343 342 342 341
299 303 308 313 320 326 334 334 335 338 338 337 338 339 340 338 338 339 340 339 340 342 342 344 346 347 352 356 355 347 341 341 342 343 344 345 346 347 347 345 345 341 341
306 308 313 319 326 333 335 335 336 336 336 337 338 338 336 337 338 338 339 340 341 341 343 345 346 350 353 355 351 345 344 344 345 346 348 348 349 349 349 348 347 349 349
314 317 322 327 332 333 333 334 334 335 335 336 335 336 336 335 336 337 338 340 341 342 342 344 346 348 350 352 349 345 345 346 346 351 353 352 353 352 350 352 353 352 353
326 326 333 336 336 335 335 334 333 335 334 335 335 335 334 335 335 337 340 341 341 343 346 345 347 349 347 349 347 346 346 346 351 355 356 359 358 354 354 356 355 360 353
332 339 338 331 337 337 333 332 334 334 336 337 336 336 335 335 337 339 341 341 341 342 344 345 345 346 346 346 347 347 348 350 352 357 359 1 357 358 360 2 3 353 348
339 338 333 330 338 339 335 333 334 337 337 336 334 335 335 336 339 338 339 341 341 342 343 345 344 344 346 347 346 348 351 352 357 0 3 4 2 6 7 11 351 352 10
335 337 333 332 339 340 339 335 335 336 336 336 336 337 337 339 340 340 340 341 342 342 344 344 344 346 348 348 349 348 352 357 0 3 7 11 15 17 18 10 11 358 355
339 338 336 331 332 336 337 336 336 336 335 336 337 338 339 339 340 342 342 343 343 344 345 346 345 345 344 345 344 347 351 359 5 6 8 17 23 28 27 22 16 1 354
342 340 334 334 335 337 335 335 335 336 335 335 336 338 340 340 341 342 343 343 343 345 349 349 346 343 341 342 340 341 346 353 356 359 11 19 20 21 25 25 15 13 351
342 341 338 334 334 334 332 333 335 334 334 334 335 339 339 340 339 340 341 343 338 341 342 343 345 343 338 336 336 341 344 350 357 360 3 8 16 23 25 26 22 12 4